When you browse on this site, cookies collect data to enhance your experience and personalize the content and advertising you see.
Visit our Privacy Policy to learn more. By continuing to use the site, you agree to this use of cookies and data.
  • In Hungary
  • List of Countries
  • For 7 days
  • Water Temperature
  • Satellite Maps
  • Weather Map
  • News
  • Weather Widgets
  • user-avatar
    Login

    Hourly Weather Lewis

    Today, 17 February, Sunday

    Time Temperature Precipitation Wind Pressure Humidity
    00:00 +6°C° 0 mm 8 mps 742 mmHg 87%
    01:00 +7°C° 0.3 mm 8 mps 741 mmHg 88%
    02:00 +7°C° 0.3 mm 9 mps 740 mmHg 89%
    03:00 +7°C° 0.3 mm 9 mps 740 mmHg 89%
    04:00 +7°C° 0.6 mm 9 mps 739 mmHg 89%
    05:00 +7°C° 0.6 mm 9 mps 739 mmHg 88%
    06:00 +7°C° 0.6 mm 9 mps 738 mmHg 88%
    07:00 +7°C° 0.4 mm 10 mps 738 mmHg 88%
    08:00 +7°C° 0.4 mm 10 mps 738 mmHg 87%
    09:00 +7°C° 0.4 mm 10 mps 737 mmHg 87%
    10:00 +7°C° 0.4 mm 10 mps 737 mmHg 86%
    11:00 +7°C° 0.4 mm 9 mps 737 mmHg 85%
    12:00 +7°C° 0.4 mm 9 mps 737 mmHg 84%
    13:00 +7°C° 0.2 mm 10 mps 737 mmHg 81%
    14:00 +7°C° 0.2 mm 10 mps 737 mmHg 78%
    15:00 +6°C° 0.2 mm 11 mps 737 mmHg 75%
    16:00 +6°C° 0 mm 11 mps 737 mmHg 75%
    17:00 +6°C° 0 mm 11 mps 737 mmHg 75%
    18:00 +4°C° 0 mm 11 mps 736 mmHg 75%
    19:00 +4°C° 0 mm 12 mps 736 mmHg 75%
    20:00 +4°C° 0 mm 12 mps 736 mmHg 76%
    21:00 +5°C° 0 mm 12 mps 736 mmHg 76%
    22:00 +5°C° 0.1 mm 13 mps 736 mmHg 77%
    23:00 +5°C° 0.1 mm 13 mps 736 mmHg 77%

    Tomorrow, 18 February, Monday

    Time Temperature Precipitation Wind Pressure Humidity
    00:00 +5°C° 0.1 mm 14 mps 735 mmHg 78%
    01:00 +4°C° 0.1 mm 13 mps 735 mmHg 76%
    02:00 +4°C° 0.1 mm 13 mps 734 mmHg 74%
    03:00 +4°C° 0.1 mm 12 mps 734 mmHg 72%
    04:00 +4°C° 0.1 mm 13 mps 733 mmHg 73%
    05:00 +4°C° 0.1 mm 14 mps 733 mmHg 75%
    06:00 +5°C° 0.1 mm 15 mps 732 mmHg 76%
    07:00 +5°C° 0.2 mm 14 mps 732 mmHg 78%
    08:00 +5°C° 0.2 mm 13 mps 732 mmHg 79%
    09:00 +5°C° 0.2 mm 13 mps 732 mmHg 80%
    10:00 +5°C° 0.3 mm 12 mps 733 mmHg 78%
    11:00 +6°C° 0.3 mm 11 mps 734 mmHg 76%
    12:00 +6°C° 0.3 mm 10 mps 735 mmHg 74%
    13:00 +6°C° 0.1 mm 10 mps 736 mmHg 74%
    14:00 +6°C° 0.1 mm 9 mps 737 mmHg 75%
    15:00 +6°C° 0.1 mm 9 mps 738 mmHg 75%
    16:00 +6°C° 0.1 mm 9 mps 739 mmHg 76%
    17:00 +5°C° 0.1 mm 9 mps 739 mmHg 77%
    18:00 +5°C° 0.1 mm 9 mps 740 mmHg 79%
    19:00 +5°C° 0.1 mm 9 mps 740 mmHg 79%
    20:00 +5°C° 0.1 mm 9 mps 741 mmHg 78%
    21:00 +5°C° 0.1 mm 9 mps 741 mmHg 78%
    22:00 +5°C° 0 mm 9 mps 742 mmHg 78%
    23:00 +5°C° 0 mm 8 mps 742 mmHg 78%

    Day after tomorrow, 19 February, Tuesday

    Time Temperature Precipitation Wind Pressure Humidity
    00:00 +4°C° 0 mm 8 mps 743 mmHg 78%
    01:00 +4°C° 0 mm 8 mps 743 mmHg 78%
    02:00 +4°C° 0 mm 7 mps 744 mmHg 78%
    03:00 +4°C° 0 mm 7 mps 744 mmHg 78%
    04:00 +4°C° 0 mm 6 mps 744 mmHg 79%
    05:00 +3°C° 0 mm 5 mps 745 mmHg 79%
    06:00 +3°C° 0 mm 5 mps 745 mmHg 80%
    07:00 +4°C° 0 mm 4 mps 745 mmHg 81%
    08:00 +4°C° 0 mm 4 mps 745 mmHg 81%
    09:00 +5°C° 0 mm 3 mps 746 mmHg 82%
    10:00 +5°C° 0 mm 4 mps 746 mmHg 78%
    11:00 +6°C° 0 mm 5 mps 746 mmHg 74%
    12:00 +6°C° 0 mm 5 mps 746 mmHg 70%
    13:00 +5°C° 0.1 mm 6 mps 745 mmHg 73%
    14:00 +5°C° 0.1 mm 7 mps 745 mmHg 75%
    15:00 +5°C° 0.1 mm 8 mps 744 mmHg 78%
    16:00 +5°C° 1 mm 8 mps 744 mmHg 81%
    17:00 +3°C° 1 mm 9 mps 743 mmHg 85%
    18:00 +3°C° 1 mm 10 mps 743 mmHg 88%
    19:00 +5°C° 0.4 mm 10 mps 742 mmHg 89%
    20:00 +5°C° 0.4 mm 10 mps 742 mmHg 89%
    21:00 +6°C° 0.4 mm 10 mps 742 mmHg 90%
    22:00 +6°C° 0.6 mm 10 mps 741 mmHg 90%
    23:00 +6°C° 0.6 mm 10 mps 741 mmHg 90%

    20 February, Wednesday

    Time Temperature Precipitation Wind Pressure Humidity
    00:00 +6°C° 0.6 mm 11 mps 741 mmHg 91%
    01:00 +6°C° 0.6 mm 11 mps 740 mmHg 90%
    02:00 +6°C° 0.6 mm 11 mps 740 mmHg 90%
    03:00 +6°C° 0.6 mm 11 mps 739 mmHg 90%
    04:00 +7°C° 0.2 mm 12 mps 739 mmHg 89%
    05:00 +7°C° 0.2 mm 12 mps 738 mmHg 89%
    06:00 +7°C° 0.2 mm 12 mps 738 mmHg 88%
    07:00 +7°C° 0.2 mm 13 mps 738 mmHg 88%
    08:00 +7°C° 0.2 mm 13 mps 738 mmHg 88%
    09:00 +8°C° 0.2 mm 13 mps 738 mmHg 88%
    10:00 +7°C° 0.2 mm 11 mps 739 mmHg 87%
    11:00 +7°C° 0.2 mm 9 mps 740 mmHg 86%
    12:00 +8°C° 0.2 mm 7 mps 741 mmHg 85%
    13:00 +7°C° 0 mm 8 mps 742 mmHg 83%
    14:00 +7°C° 0 mm 8 mps 743 mmHg 80%
    15:00 +7°C° 0 mm 8 mps 744 mmHg 78%
    16:00 +6°C° 0 mm 7 mps 745 mmHg 79%
    17:00 +5°C° 0 mm 6 mps 745 mmHg 81%
    18:00 +5°C° 0 mm 6 mps 746 mmHg 83%
    19:00 +5°C° 0 mm 6 mps 747 mmHg 83%
    20:00 +5°C° 0 mm 6 mps 747 mmHg 82%
    21:00 +4°C° 0 mm 6 mps 748 mmHg 82%
    22:00 +5°C° 0 mm 6 mps 749 mmHg 84%
    23:00 +5°C° 0 mm 6 mps 749 mmHg 87%

    21 February, Thursday

    Time Temperature Precipitation Wind Pressure Humidity
    00:00 +5°C° 0 mm 6 mps 750 mmHg 89%
    01:00 +5°C° 0 mm 7 mps 750 mmHg 88%
    02:00 +5°C° 0 mm 7 mps 750 mmHg 86%
    03:00 +5°C° 0 mm 8 mps 750 mmHg 85%
    04:00 +6°C° 0 mm 8 mps 750 mmHg 87%
    05:00 +7°C° 0 mm 9 mps 750 mmHg 89%
    06:00 +7°C° 0 mm 9 mps 750 mmHg 91%
    07:00 +8°C° 0 mm 9 mps 750 mmHg 90%
    08:00 +8°C° 0 mm 9 mps 751 mmHg 90%
    09:00 +8°C° 0 mm 9 mps 751 mmHg 89%
    10:00 +10°C° 0 mm 9 mps 752 mmHg 88%
    11:00 +10°C° 0 mm 9 mps 752 mmHg 86%
    12:00 +10°C° 0 mm 9 mps 753 mmHg 84%
    13:00 +10°C° 0 mm 9 mps 753 mmHg 84%
    14:00 +10°C° 0 mm 9 mps 753 mmHg 84%
    15:00 +10°C° 0 mm 9 mps 753 mmHg 84%
    16:00 +8°C° 0 mm 9 mps 753 mmHg 84%
    17:00 +8°C° 0 mm 9 mps 753 mmHg 84%
    18:00 +7°C° 0 mm 9 mps 753 mmHg 85%
    19:00 +7°C° 0 mm 9 mps 753 mmHg 85%
    20:00 +7°C° 0 mm 9 mps 754 mmHg 85%
    21:00 +7°C° 0 mm 9 mps 754 mmHg 85%
    22:00 +7°C° 0 mm 10 mps 754 mmHg 85%
    23:00 +7°C° 0 mm 10 mps 754 mmHg 84%

    22 February, Friday

    Time Temperature Precipitation Wind Pressure Humidity
    00:00 +7°C° 0 mm 11 mps 754 mmHg 84%
    01:00 +7°C° 0 mm 10 mps 754 mmHg 84%
    02:00 +7°C° 0 mm 10 mps 754 mmHg 85%
    03:00 +7°C° 0 mm 10 mps 754 mmHg 85%
    04:00 +7°C° 0 mm 9 mps 754 mmHg 85%
    05:00 +7°C° 0 mm 9 mps 754 mmHg 86%
    06:00 +7°C° 0 mm 9 mps 754 mmHg 86%
    07:00 +8°C° 0 mm 9 mps 755 mmHg 86%
    08:00 +8°C° 0 mm 9 mps 755 mmHg 86%
    09:00 +8°C° 0 mm 9 mps 755 mmHg 85%
    10:00 +8°C° 0 mm 10 mps 755 mmHg 83%
    11:00 +8°C° 0 mm 10 mps 755 mmHg 82%
    12:00 +8°C° 0 mm 11 mps 755 mmHg 80%
    13:00 +9°C° 0 mm 11 mps 755 mmHg 78%
    14:00 +9°C° 0 mm 11 mps 755 mmHg 76%
    15:00 +9°C° 0 mm 11 mps 755 mmHg 74%
    16:00 +9°C° 0 mm 10 mps 755 mmHg 72%
    17:00 +9°C° 0 mm 10 mps 755 mmHg 71%
    18:00 +10°C° 0 mm 9 mps 755 mmHg 70%
    19:00 +9°C° 0 mm 10 mps 755 mmHg 69%
    20:00 +9°C° 0 mm 10 mps 755 mmHg 68%
    21:00 +9°C° 0 mm 10 mps 755 mmHg 68%
    22:00 +9°C° 0 mm 10 mps 755 mmHg 68%
    23:00 +8°C° 0 mm 11 mps 755 mmHg 68%
    Show more